Theta_e
350 352 355 353 350 349 350 348 344 344 346 344 343 343 343 344 343 344 343 342 340 338 336 334 334 336 337 339 339 341 341 341 338 335 336 337 337 337 336 336 337 337 337
350 350 353 354 352 351 350 349 347 346 346 345 344 344 344 344 343 342 341 340 340 341 341 340 340 341 341 340 340 342 340 340 339 334 334 335 336 337 335 334 335 334 334
351 349 350 354 352 352 351 349 347 346 345 345 343 343 342 343 343 342 340 341 339 339 340 340 340 341 341 341 342 342 342 342 340 336 333 334 335 336 333 331 332 331 329
352 351 349 352 352 351 352 350 348 348 346 345 344 343 342 341 341 341 341 339 339 339 339 339 340 339 339 341 341 341 341 340 340 338 334 333 334 333 333 329 327 326 326
353 352 351 351 351 352 352 350 349 349 345 345 344 344 343 340 339 339 340 340 339 336 336 338 338 337 339 338 337 339 339 339 337 333 332 331 332 331 330 329 328 327 327
353 353 351 351 352 353 349 343 344 345 346 346 344 343 343 341 340 339 339 340 338 337 336 338 337 337 335 331 335 339 340 338 334 333 331 331 331 332 331 330 329 325 324
349 354 353 352 350 346 341 340 340 338 339 336 340 343 343 343 340 340 339 339 338 337 337 337 337 336 335 333 336 341 340 339 338 337 334 332 331 332 332 330 330 328 327
352 353 352 352 348 344 341 342 339 337 334 342 341 340 342 342 341 340 339 336 335 334 335 336 336 336 335 335 335 339 338 338 336 334 334 334 333 332 333 332 331 329 327
353 354 354 352 350 343 341 339 336 337 331 332 331 329 335 342 342 341 339 338 335 333 334 335 336 335 335 335 333 336 336 337 336 334 333 334 333 332 331 331 329 328 327
346 349 354 353 349 341 337 331 333 331 328 330 333 330 333 339 342 342 341 338 334 330 333 334 335 335 334 335 335 334 333 332 334 335 334 333 333 332 331 330 330 328 328
341 342 348 348 344 343 334 331 329 328 331 329 327 326 331 339 343 342 340 339 336 332 332 333 334 334 333 332 330 333 334 332 332 332 331 332 332 332 330 329 329 329 329
338 336 339 343 340 338 336 334 330 327 328 328 328 329 336 340 343 342 340 339 334 333 331 333 333 332 331 330 328 328 333 332 331 332 330 330 330 330 331 331 330 329 329
338 334 332 329 329 332 334 332 331 329 328 330 333 337 339 340 342 341 339 336 333 331 330 332 332 332 332 329 326 324 326 328 328 331 331 330 331 330 331 331 330 331 330
334 333 329 328 329 332 330 329 329 329 328 333 335 338 338 338 338 339 337 335 332 331 331 331 330 330 331 327 325 325 324 323 322 322 322 323 323 322 320 321 324 329 329
329 331 332 328 331 335 332 328 328 329 329 329 333 332 336 337 338 339 335 332 332 331 332 331 330 328 326 327 328 328 327 326 325 323 321 320 318 318 318 320 324 328 328
322 324 325 328 334 335 333 327 328 329 332 334 331 331 338 335 336 337 334 332 331 330 330 330 329 329 329 328 328 329 330 329 328 325 322 321 321 320 322 323 322 322 322
322 323 324 325 327 331 334 333 326 323 330 332 337 334 334 335 336 336 333 332 331 331 330 330 330 330 329 329 329 329 328 328 328 327 326 325 325 325 324 323 323 323 323
322 322 323 324 325 326 330 332 328 324 321 314 321 334 335 336 335 333 332 331 328 329 330 329 327 327 327 327 327 326 324 324 323 322 321 320 320 320 319 318 318 318 318
321 323 324 325 325 325 328 328 325 320 317 315 315 319 324 331 331 330 330 329 328 326 326 326 326 326 326 324 322 321 319 319 318 318 318 317 317 316 316 315 315 315 315
321 322 323 324 325 325 326 326 323 322 322 321 321 322 323 324 323 323 323 324 324 325 326 325 324 322 321 320 320 319 319 319 318 318 317 317 317 317 315 314 315 315 315
320 322 322 323 324 325 325 326 325 323 324 323 322 323 325 323 324 324 325 325 324 325 326 325 323 322 322 321 320 318 314 313 313 314 314 312 311 312 312 312 312 311 309
319 321 322 323 323 323 325 326 327 325 325 325 325 326 326 326 324 322 320 320 320 322 323 322 321 320 318 315 313 311 311 311 311 312 310 309 309 309 308 307 306 306 306
319 321 323 323 323 324 323 324 325 327 326 325 324 324 324 322 320 319 317 317 317 316 316 316 315 310 309 308 307 306 307 308 310 310 310 309 307 307 307 306 306 305 305
319 321 321 322 323 324 324 323 324 326 326 323 322 321 319 317 316 317 317 315 314 313 310 305 303 302 301 301 300 300 300 300 300 300 302 307 308 307 306 305 304 305 304
319 321 320 320 320 320 319 319 320 321 320 319 318 317 316 316 317 316 314 313 311 309 307 304 302 301 301 302 301 300 299 299 299 300 300 300 303 303 304 304 304 304 303
318 319 320 319 320 319 319 318 317 317 317 317 317 318 318 316 314 313 312 312 311 310 307 302 302 303 303 302 300 296 295 295 296 298 298 298 298 298 297 296 295 294 292
Wind_Speed
27 26 23 23 20 18 17 15 15 15 13 12 12 12 11 11 10 12 12 13 15 15 14 14 13 11 13 14 15 18 20 20 7 8 16 14 17 15 12 11 9 8 8
24 25 24 22 20 20 18 18 17 16 17 17 17 15 14 15 12 11 10 10 10 12 14 13 15 12 12 12 11 14 15 22 16 8 16 16 15 18 13 12 10 8 7
23 22 25 24 22 21 21 21 19 16 15 14 15 16 13 14 13 11 11 13 11 12 13 12 12 10 11 12 11 11 11 12 19 13 7 18 16 20 16 11 10 9 8
28 26 28 26 26 24 21 21 19 21 21 20 17 16 14 13 13 12 14 13 12 10 8 8 9 10 11 10 9 10 11 10 15 16 15 16 18 20 19 16 12 11 10
30 29 30 28 27 23 21 20 18 18 17 15 14 15 16 15 15 14 13 12 12 10 10 10 10 8 7 9 11 10 8 10 13 13 9 6 12 17 17 17 15 13 11
28 31 27 28 26 23 4 13 8 12 17 17 16 17 17 17 17 17 14 13 13 12 10 9 9 8 6 7 7 9 8 13 14 12 11 11 13 15 19 21 16 9 5
32 28 25 22 12 17 21 21 21 22 18 19 20 21 22 24 21 18 16 14 15 14 11 11 11 9 7 5 5 7 8 9 7 13 18 19 20 26 23 23 23 19 9
34 25 15 16 21 25 24 21 21 22 21 28 21 29 31 26 24 20 16 15 14 13 11 12 12 11 8 6 6 7 9 9 8 7 9 10 16 20 27 26 25 21 13
10 21 18 22 27 29 28 26 29 35 39 38 32 31 32 34 27 24 19 17 16 14 10 11 14 12 9 8 6 7 6 7 6 6 4 3 3 7 15 18 15 14 6
9 9 17 26 32 35 30 29 33 35 32 30 43 37 34 34 29 27 21 17 16 15 13 10 12 11 9 10 9 9 8 5 6 6 6 5 4 6 8 14 18 14 6
13 12 10 21 33 34 32 33 27 23 25 28 24 31 30 33 33 28 24 19 19 17 16 14 13 12 9 8 8 7 9 6 8 6 4 4 4 6 8 11 16 18 15
11 10 13 18 20 19 28 29 26 19 22 25 24 19 19 30 32 27 24 19 19 20 19 17 15 12 11 9 7 6 6 6 5 9 7 6 6 6 7 11 13 15 17
16 12 13 15 17 18 18 17 14 16 12 15 18 18 19 30 29 22 20 17 17 18 16 14 12 12 12 10 9 7 8 8 6 7 9 9 8 8 8 10 12 15 17
18 18 14 12 11 14 12 15 14 19 14 13 12 15 14 20 24 22 21 17 17 17 15 13 9 8 13 11 9 7 6 7 7 8 9 9 9 8 7 8 11 12 16
19 17 16 13 11 12 9 8 9 11 11 20 20 10 9 13 22 25 21 19 21 20 16 13 11 10 10 8 7 7 8 8 9 9 9 8 8 8 8 7 7 8 13
17 19 19 15 14 11 8 0 7 10 11 12 14 18 18 24 21 22 16 16 18 18 15 13 11 11 10 9 7 6 5 6 8 9 7 6 5 5 5 5 5 5 6
14 17 18 15 12 9 12 8 7 4 10 20 23 28 23 20 12 19 19 17 17 18 14 12 12 11 9 8 7 6 6 4 4 3 5 4 3 3 3 2 3 4 4
16 15 13 18 16 12 11 9 9 10 8 9 9 16 16 16 19 24 21 20 20 17 13 13 10 8 8 9 10 10 9 7 6 6 5 6 6 6 7 6 4 3 3
15 18 15 14 15 15 7 5 8 15 18 15 20 24 22 24 23 20 17 18 18 14 13 13 12 12 12 11 9 7 6 7 7 9 9 10 9 9 8 5 4 4 3
14 15 13 12 10 12 10 7 11 14 15 19 21 18 18 18 17 16 10 11 13 16 14 16 15 14 13 13 13 13 12 9 8 7 5 4 4 4 4 3 2 2 4
16 16 14 11 9 8 5 5 8 12 15 17 18 15 12 16 15 16 12 11 17 19 19 17 16 14 14 13 13 12 11 10 9 8 8 8 7 8 8 9 10 10 9
14 12 13 12 9 9 3 3 8 11 12 15 17 15 15 16 16 16 17 18 18 21 20 21 20 15 14 13 12 12 11 11 10 10 10 11 9 10 9 8 7 6 6
10 9 8 8 7 6 10 10 5 5 11 15 17 13 13 17 18 21 23 24 23 23 22 21 20 18 15 14 13 10 10 10 8 7 7 6 6 5 4 3 1 1 1
10 6 3 3 3 6 7 8 8 12 13 18 19 17 18 19 23 25 23 24 23 21 20 21 20 19 17 14 11 9 8 7 5 3 2 3 3 2 1 1 2 4 5
9 4 5 8 10 13 16 16 15 16 19 20 20 21 22 25 24 24 23 22 22 23 21 18 17 17 14 11 8 6 4 3 2 1 1 1 1 1 0 1 3 4 5
11 7 8 11 13 12 14 17 15 17 19 21 22 23 22 23 21 22 24 24 22 19 18 16 14 12 10 7 6 5 5 4 4 4 4 3 2 3 3 4 5 6 8
Wind_Direction
207 209 213 216 219 221 223 228 223 218 225 216 214 219 228 237 248 250 255 248 246 248 246 248 251 257 255 250 242 242 238 228 200 200 211 205 195 196 188 188 185 185 180
207 212 213 216 219 216 224 227 226 230 220 214 211 220 227 217 221 229 233 239 250 254 253 247 258 258 265 260 254 240 223 229 207 179 194 195 197 200 195 187 189 195 191
210 211 213 217 219 219 221 217 221 212 207 218 218 211 211 213 215 225 235 238 249 254 259 251 257 258 266 269 260 263 264 238 214 194 166 191 190 194 182 181 182 191 192
213 210 210 215 220 222 228 222 213 215 213 209 215 220 215 213 217 219 222 224 228 241 245 258 249 241 260 262 264 263 268 254 225 213 201 185 187 193 186 175 175 183 181
216 216 213 214 220 225 224 227 224 229 232 240 241 224 221 220 219 225 231 229 226 233 240 235 230 231 259 271 265 255 231 208 204 184 159 161 169 171 179 185 191 191 200
219 221 219 221 223 225 181 56 353 271 240 235 243 243 249 236 233 239 241 239 218 226 232 228 208 216 245 265 253 252 233 206 193 185 180 186 187 184 181 190 194 183 211
288 232 224 220 180 142 132 112 51 29 12 352 310 260 246 249 241 234 236 232 230 222 220 227 225 215 215 240 244 212 218 217 238 218 211 206 195 201 194 192 202 200 195
239 237 213 195 172 167 169 171 183 194 229 235 245 267 255 228 233 229 231 229 221 224 223 228 215 205 210 219 218 204 209 219 238 246 250 244 231 218 217 215 213 216 212
248 244 222 221 195 185 179 187 210 213 219 217 217 256 253 243 227 223 214 227 223 217 206 215 205 194 194 201 199 203 206 220 228 221 246 261 246 228 225 221 208 195 202
350 307 245 217 207 192 193 203 207 221 223 225 233 241 233 242 222 218 213 216 220 212 201 200 198 202 192 206 205 210 222 227 212 213 226 230 224 212 222 226 224 199 188
334 318 276 220 207 211 217 217 249 241 235 228 239 249 233 226 221 210 208 210 222 210 203 193 184 189 193 200 220 231 227 220 204 212 220 226 225 217 217 219 227 232 214
332 314 285 257 242 238 245 264 274 256 231 240 260 265 242 232 215 203 205 210 217 205 199 197 195 194 198 198 211 220 220 206 217 222 221 244 233 234 243 245 239 237 242
328 319 294 287 287 286 283 282 258 238 222 237 229 236 220 206 202 197 196 203 208 200 196 197 195 198 204 194 188 203 212 215 204 200 226 229 254 265 259 262 259 252 249
323 323 312 303 306 301 297 268 243 239 222 214 245 188 177 181 189 180 188 192 194 188 179 177 183 183 188 193 181 193 222 239 246 242 231 237 238 238 246 264 263 259 252
3 336 315 296 302 302 293 281 265 257 252 235 223 235 212 191 205 196 182 185 184 180 172 174 181 182 184 199 212 229 232 237 244 243 247 250 247 250 257 264 257 255 239
6 1 343 328 291 287 271 223 243 259 244 253 239 238 215 206 228 197 178 186 186 182 185 188 203 213 215 211 215 210 232 255 246 244 240 231 233 232 236 243 245 239 259
9 13 357 347 340 303 264 220 184 53 256 248 233 225 229 230 200 182 169 177 182 182 187 188 195 191 175 175 181 173 163 157 157 150 156 166 170 177 192 213 248 280 296
349 2 356 4 351 337 304 255 179 153 109 64 122 205 209 187 167 163 167 163 167 185 189 190 190 180 173 154 141 136 138 141 135 118 109 105 105 108 102 88 63 53 25
342 340 359 351 353 5 30 127 136 117 107 107 96 99 117 132 139 145 156 167 165 173 164 153 155 145 144 141 136 132 131 124 116 104 95 95 94 90 88 86 83 67 51
350 340 332 344 351 5 34 92 110 104 105 109 101 106 105 114 129 140 161 163 167 156 138 132 124 122 124 129 130 129 128 131 136 133 122 106 96 91 71 43 62 38 26
332 339 334 294 307 345 29 84 151 135 127 120 127 131 128 135 133 128 123 134 155 157 148 138 138 137 135 136 132 134 123 113 111 109 106 97 92 93 88 83 84 82 78
324 332 328 326 280 262 302 134 129 157 145 136 139 132 129 123 119 116 118 121 129 142 146 146 136 134 136 132 130 131 126 121 116 120 119 109 100 99 93 81 73 73 66
329 323 322 324 342 275 240 228 225 144 138 148 151 139 138 139 139 134 125 123 123 124 129 129 127 124 123 120 119 118 119 118 120 124 133 134 124 134 128 123 114 219 226
350 336 350 1 54 99 126 133 165 176 151 128 136 135 132 129 135 135 135 135 131 127 127 122 120 118 114 112 111 106 103 103 109 114 135 168 171 170 155 62 9 343 343
17 82 71 95 113 114 113 109 115 122 120 127 127 126 128 135 134 138 140 134 133 133 129 123 118 116 117 113 103 92 82 71 52 45 34 49 91 87 166 303 343 341 331
34 77 100 112 115 119 116 116 109 114 115 127 131 133 136 143 147 147 143 141 139 137 136 135 132 130 124 111 96 85 78 74 66 64 81 94 89 73 46 31 15 11 2